| time (UTC) | temp C | wind direction | speed KPH | gust KPH | rain 1hr cm | rain 24hr cm | rain mn cm | humidity % | barometer mb |
| 20260507014523 | -4 | 177 | 8.0 | 11.3 | 0.00 | 0.00 | 0.00 | 84 | 1019.3 |
| 20260507013526 | -3 | 186 | 6.4 | 8.0 | 0.00 | 0.00 | 0.00 | 83 | 1019.4 |
| 20260507012526 | -2 | 160 | 6.4 | 8.0 | 0.00 | 0.00 | 0.00 | 80 | 1019.3 |
| 20260507011518 | -2 | 160 | 6.4 | 9.7 | 0.00 | 0.00 | 0.00 | 79 | 1019.3 |
| 20260507010527 | -2 | 164 | 4.8 | 6.4 | 0.00 | 0.00 | 0.00 | 80 | 1019.4 |
| 20260507005527 | -2 | 177 | 1.6 | 1.6 | 0.00 | 0.00 | 0.00 | 79 | 1019.2 |
| 20260507004527 | -1 | 214 | 3.2 | 4.8 | 0.00 | 0.00 | 0.00 | 75 | 1019.0 |
| 20260507003527 | 0 | 235 | 3.2 | 4.8 | 0.00 | 0.00 | 0.00 | 69 | 1018.9 |
| 20260507002518 | -1 | 244 | 4.8 | 8.0 | 0.00 | 0.00 | 0.00 | 73 | 1019.0 |
| 20260507001519 | -1 | 261 | 8.0 | 9.7 | 0.00 | 0.00 | 0.00 | 74 | 1018.9 |
| 20260507000519 | -1 | 262 | 6.4 | 9.7 | 0.00 | 0.00 | 0.00 | 76 | 1018.9 |
| 20260506235528 | 0 | 288 | 6.4 | 8.0 | 0.00 | 0.00 | 0.00 | 72 | 1018.9 |
| 20260506234519 | -1 | 297 | 6.4 | 8.0 | 0.00 | 0.00 | 0.00 | 75 | 1018.8 |
| 20260506233520 | -1 | 323 | 6.4 | 9.7 | 0.00 | 0.00 | 0.00 | 76 | 1018.6 |
| 20260506232520 | 0 | 341 | 6.4 | 9.7 | 0.00 | 0.00 | 0.00 | 75 | 1018.5 |
| 20260506231520 | -1 | 343 | 8.0 | 11.3 | 0.00 | 0.00 | 0.00 | 76 | 1018.4 |
| 20260506230520 | 0 | 320 | 6.4 | 9.7 | 0.00 | 0.00 | 0.00 | 75 | 1018.3 |
| 20260506225521 | 0 | 322 | 6.4 | 12.9 | 0.00 | 0.00 | 0.00 | 74 | 1018.1 |
| 20260506224520 | 0 | 331 | 6.4 | 11.3 | 0.00 | 0.05 | 0.00 | 72 | 1018.0 |
| 20260506223521 | 0 | 321 | 4.8 | 8.0 | 0.00 | 0.05 | 0.00 | 71 | 1018.0 |
| 20260506222530 | 1 | 323 | 3.2 | 6.4 | 0.00 | 0.05 | 0.00 | 67 | 1018.0 |
| 20260506221530 | 0 | 249 | 1.6 | 6.4 | 0.00 | 0.05 | 0.00 | 69 | 1018.1 |
| 20260506220530 | 0 | 306 | 3.2 | 4.8 | 0.00 | 0.05 | 0.00 | 71 | 1018.0 |
| 20260506215530 | 0 | 13 | 3.2 | 6.4 | 0.00 | 0.05 | 0.00 | 77 | 1018.1 |
| 20260506214531 | 0 | 349 | 3.2 | 6.4 | 0.00 | 0.08 | 0.00 | 80 | 1018.0 |
| 20260506213531 | 0 | 12 | 3.2 | 4.8 | 0.00 | 0.08 | 0.00 | 79 | 1017.9 |
| 20260506212531 | -1 | 345 | 3.2 | 4.8 | 0.00 | 0.08 | 0.00 | 84 | 1018.0 |
| 20260506211531 | -1 | 352 | 3.2 | 6.4 | 0.00 | 0.08 | 0.00 | 86 | 1018.1 |
| 20260506210551 | -1 | 359 | 4.8 | 6.4 | 0.00 | 0.08 | 0.00 | 88 | 1018.1 |
| 20260506205523 | -2 | 332 | 4.8 | 9.7 | 0.00 | 0.08 | 0.00 | 86 | 1018.3 |
| 20260506204523 | -1 | 329 | 6.4 | 9.7 | 0.00 | 0.08 | 0.00 | 88 | 1018.2 |
| 20260506203603 | -1 | 341 | 8.0 | 12.9 | 0.00 | 0.08 | 0.00 | 88 | 1018.1 |
| 20260506202517 | -1 | 339 | 8.0 | 11.3 | 0.00 | 0.08 | 0.00 | 88 | 1017.9 |
| 20260506201517 | 0 | 355 | 4.8 | 8.0 | 0.00 | 0.08 | 0.00 | 90 | 1017.7 |
| 20260506200538 | 0 | 332 | 6.4 | 9.7 | 0.00 | 0.08 | 0.00 | 89 | 1017.6 |
| 20260506195533 | 0 | 320 | 4.8 | 6.4 | 0.00 | 0.08 | 0.00 | 90 | 1017.5 |
| 20260506194533 | 0 | 278 | 3.2 | 6.4 | 0.00 | 0.08 | 0.00 | 93 | 1017.5 |
| 20260506193518 | -1 | 320 | 6.4 | 11.3 | 0.00 | 0.08 | 0.00 | 93 | 1017.7 |
| 20260506192518 | -1 | 320 | 8.0 | 11.3 | 0.00 | 0.08 | 0.00 | 94 | 1017.7 |
| 20260506191538 | -2 | 341 | 8.0 | 14.5 | 0.00 | 0.08 | 0.00 | 93 | 1017.8 |
| 20260506190518 | -3 | 350 | 14.5 | 19.3 | 0.00 | 0.08 | 0.00 | 93 | 1017.8 |
| 20260506185517 | -3 | 349 | 14.5 | 19.3 | 0.00 | 0.08 | 0.00 | 93 | 1017.8 |
| 20260506184517 | -3 | 346 | 12.9 | 20.9 | 0.00 | 0.08 | 0.00 | 93 | 1017.8 |
| 20260506183519 | -3 | 319 | 8.0 | 12.9 | 0.00 | 0.08 | 0.00 | 93 | 1017.6 |
| 20260506182520 | -3 | 329 | 4.8 | 8.0 | 0.00 | 0.08 | 0.00 | 93 | 1017.6 |
| 20260506181534 | -4 | 319 | 4.8 | 9.7 | 0.00 | 0.08 | 0.00 | 92 | 1017.6 |
| 20260506180538 | -4 | 354 | 6.4 | 12.9 | 0.00 | 0.08 | 0.00 | 92 | 1017.8 |
| 20260506175518 | -4 | 24 | 6.4 | 11.3 | 0.00 | 0.08 | 0.00 | 92 | 1017.8 |
| 20260506174517 | -4 | 44 | 12.9 | 17.7 | 0.00 | 0.08 | 0.00 | 92 | 1017.7 |
| 20260506173558 | -3 | 45 | 17.7 | 24.1 | 0.00 | 0.08 | 0.00 | 91 | 1017.4 |
| 20260506172517 | -2 | 348 | 12.9 | 19.3 | 0.00 | 0.08 | 0.00 | 92 | 1017.4 |
| 20260506171518 | -2 | 308 | 6.4 | 11.3 | 0.00 | 0.08 | 0.00 | 92 | 1017.2 |
| 20260506170519 | -2 | 285 | 4.8 | 6.4 | 0.00 | 0.08 | 0.00 | 92 | 1016.9 |
| 20260506165519 | -2 | 229 | 8.0 | 12.9 | 0.00 | 0.08 | 0.00 | 91 | 1016.3 |
| 20260506164518 | -2 | 217 | 12.9 | 17.7 | 0.00 | 0.08 | 0.00 | 91 | 1015.7 |
| 20260506163518 | -2 | 213 | 16.1 | 20.9 | 0.00 | 0.08 | 0.00 | 91 | 1015.3 |
| 20260506162518 | -2 | 204 | 16.1 | 20.9 | 0.00 | 0.08 | 0.00 | 91 | 1015.3 |
| 20260506161519 | -2 | 198 | 14.5 | 22.5 | 0.00 | 0.08 | 0.00 | 92 | 1015.2 |
| 20260506160518 | -2 | 205 | 14.5 | 17.7 | 0.00 | 0.08 | 0.00 | 92 | 1015.3 |
| 20260506155519 | -2 | 204 | 12.9 | 20.9 | 0.00 | 0.08 | 0.00 | 92 | 1015.3 |
| 20260506154539 | -2 | 196 | 14.5 | 19.3 | 0.00 | 0.08 | 0.00 | 92 | 1015.3 |
| 20260506153519 | -2 | 202 | 14.5 | 17.7 | 0.00 | 0.08 | 0.00 | 92 | 1015.2 |
| 20260506152519 | -2 | 195 | 12.9 | 17.7 | 0.00 | 0.08 | 0.00 | 92 | 1015.2 |
| 20260506151537 | -2 | 198 | 14.5 | 24.1 | 0.00 | 0.08 | 0.00 | 92 | 1015.1 |
| 20260506150521 | -3 | 196 | 12.9 | 14.5 | 0.00 | 0.08 | 0.00 | 92 | 1015.2 |
| 20260506145522 | -3 | 203 | 12.9 | 16.1 | 0.00 | 0.08 | 0.00 | 92 | 1015.3 |
| 20260506144521 | -3 | 196 | 11.3 | 14.5 | 0.00 | 0.08 | 0.00 | 92 | 1015.5 |
| 20260506143522 | -3 | 192 | 8.0 | 9.7 | 0.00 | 0.08 | 0.00 | 91 | 1015.7 |
| 20260506142522 | -3 | 144 | 8.0 | 8.0 | 0.00 | 0.08 | 0.00 | 91 | 1015.6 |
| 20260506094622 | -2 | 207 | 8.0 | 8.0 | 0.00 | 0.08 | 0.00 | 92 | 1013.5 |
| 20260506093603 | -2 | 207 | 9.7 | 11.3 | 0.00 | 0.08 | 0.00 | 92 | 1013.5 |
| 20260506092602 | -2 | 204 | 8.0 | 9.7 | 0.00 | 0.08 | 0.00 | 92 | 1013.5 |
| 20260506091603 | -2 | 215 | 6.4 | 8.0 | 0.00 | 0.08 | 0.00 | 92 | 1013.4 |
| 20260506090603 | -2 | 198 | 4.8 | 4.8 | 0.00 | 0.08 | 0.00 | 92 | 1013.5 |
| 20260506085604 | -2 | 188 | 3.2 | 3.2 | 0.00 | 0.08 | 0.00 | 92 | 1013.5 |
| 20260506084604 | -2 | 187 | 1.6 | 1.6 | 0.00 | 0.08 | 0.00 | 92 | 1013.5 |
| 20260506083624 | -2 | 206 | 3.2 | 4.8 | 0.00 | 0.08 | 0.00 | 92 | 1013.5 |
| 20260506082604 | -1 | 211 | 3.2 | 4.8 | 0.00 | 0.08 | 0.00 | 92 | 1013.4 |
| 20260506081604 | -1 | 221 | 4.8 | 6.4 | 0.00 | 0.08 | 0.00 | 92 | 1013.3 |
| 20260506080604 | -1 | 218 | 4.8 | 6.4 | 0.00 | 0.08 | 0.00 | 92 | 1013.6 |
| 20260506073522 | -1 | 255 | 3.2 | 4.8 | 0.00 | 0.08 | 0.00 | 92 | 1013.7 |
| 20260506072542 | -1 | 284 | 3.2 | 6.4 | 0.00 | 0.08 | 0.00 | 92 | 1013.9 |
| 20260506071522 | -1 | 283 | 3.2 | 4.8 | 0.00 | 0.08 | 0.00 | 92 | 1013.8 |
| 20260506070523 | -1 | 298 | 3.2 | 4.8 | 0.00 | 0.08 | 0.00 | 92 | 1013.9 |
| 20260506061520 | -1 | 347 | 6.4 | 9.7 | 0.00 | 0.08 | 0.00 | 92 | 1013.8 |
| 20260506060520 | -1 | 346 | 8.0 | 12.9 | 0.00 | 0.08 | 0.00 | 92 | 1013.6 |
| 20260506050521 | 0 | 348 | 8.0 | 12.9 | 0.00 | 0.08 | 0.08 | 92 | 1013.4 |
| 20260506044545 | 0 | 353 | 4.8 | 8.0 | 0.00 | 0.08 | 0.08 | 92 | 1013.3 |
| 20260506043522 | 0 | 6 | 6.4 | 12.9 | 0.00 | 0.08 | 0.08 | 91 | 1013.3 |
| 20260506042522 | 0 | 227 | 6.4 | 11.3 | 0.00 | 0.08 | 0.08 | 91 | 1013.2 |
| 20260506041519 | 0 | 203 | 11.3 | 17.7 | 0.00 | 0.08 | 0.08 | 91 | 1012.8 |
| 20260506040523 | 0 | 214 | 11.3 | 16.1 | 0.00 | 0.08 | 0.08 | 92 | 1012.9 |
| 20260506035518 | 0 | 201 | 14.5 | 19.3 | 0.00 | 0.08 | 0.08 | 91 | 1012.7 |
| 20260506034517 | 0 | 191 | 16.1 | 20.9 | 0.00 | 0.08 | 0.08 | 91 | 1012.7 |
| 20260506033517 | 1 | 203 | 12.9 | 16.1 | 0.00 | 0.08 | 0.08 | 90 | 1012.8 |
| 20260506032601 | 1 | 193 | 14.5 | 20.9 | 0.00 | 0.08 | 0.08 | 89 | 1012.6 |
| 20260506031521 | 0 | 204 | 11.3 | 16.1 | 0.00 | 0.08 | 0.08 | 90 | 1012.7 |
| 20260506030537 | 0 | 191 | 16.1 | 22.5 | 0.00 | 0.08 | 0.08 | 90 | 1012.7 |
| 20260506025517 | 0 | 213 | 16.1 | 24.1 | 0.00 | 0.10 | 0.08 | 90 | 1011.9 |
| 20260506024518 | 0 | 210 | 16.1 | 22.5 | 0.00 | 0.10 | 0.08 | 90 | 1011.7 |
| 20260506023518 | 0 | 196 | 19.3 | 29.0 | 0.00 | 0.10 | 0.08 | 91 | 1011.4 |
| 20260506022518 | 0 | 189 | 19.3 | 29.0 | 0.00 | 0.10 | 0.08 | 91 | 1011.2 |
| 20260506021518 | 0 | 188 | 19.3 | 25.7 | 0.00 | 0.10 | 0.08 | 91 | 1011.5 |
| 20260506020519 | 0 | 183 | 20.9 | 25.7 | 0.00 | 0.10 | 0.08 | 91 | 1011.7 |
| 20260506015519 | 0 | 179 | 19.3 | 25.7 | 0.00 | 0.10 | 0.08 | 91 | 1011.9 |